| time (UTC) | temp F | wind direction | speed knots | gust knots | rain 1hr in | rain 24hr in | rain mn in | humidity % | barometer mb |
| 20260503044550 | 35 | 0 | 0.0 | 0.0 | 0.00 | 0.09 | 0.00 | 90 | 1017.5 |
| 20260503043051 | 36 | 0 | 0.0 | 0.0 | 0.00 | 0.09 | 0.00 | 89 | 1017.5 |
| 20260503041557 | 36 | 0 | 0.0 | 0.0 | 0.00 | 0.09 | 0.00 | 89 | 1017.5 |
| 20260503040059 | 36 | 0 | 0.0 | 0.0 | 0.00 | 0.09 | 0.00 | 89 | 1017.5 |
| 20260503034557 | 36 | 0 | 0.0 | 0.0 | 0.00 | 0.09 | 0.09 | 89 | 1017.5 |
| 20260503033059 | 36 | 0 | 0.0 | 0.0 | 0.00 | 0.09 | 0.09 | 88 | 1017.7 |
| 20260503031553 | 36 | 0 | 0.0 | 0.0 | 0.00 | 0.09 | 0.09 | 88 | 1017.7 |
| 20260503030053 | 37 | 0 | 0.0 | 0.0 | 0.00 | 0.09 | 0.09 | 87 | 1017.8 |
| 20260503024552 | 37 | 0 | 0.0 | 0.0 | 0.00 | 0.09 | 0.09 | 84 | 1018.0 |
| 20260503023054 | 37 | 0 | 0.0 | 0.0 | 0.00 | 0.09 | 0.09 | 82 | 1017.9 |
| 20260503021553 | 39 | 0 | 0.0 | 0.0 | 0.00 | 0.09 | 0.09 | 81 | 1017.9 |
| 20260503014624 | 40 | 0 | 0.0 | 0.0 | 0.00 | 0.09 | 0.09 | 80 | 1017.7 |
| 20260503013058 | 40 | 0 | 0.0 | 0.0 | 0.00 | 0.09 | 0.09 | 79 | 1017.6 |
| 20260503011625 | 41 | 0 | 0.0 | 0.0 | 0.00 | 0.09 | 0.09 | 79 | 1017.6 |
| 20260503010053 | 41 | 0 | 0.0 | 0.0 | 0.00 | 0.09 | 0.09 | 75 | 1017.5 |
| 20260503004615 | 41 | 0 | 0.0 | 0.0 | 0.00 | 0.09 | 0.09 | 75 | 1017.5 |
| 20260503003058 | 42 | 0 | 0.0 | 0.0 | 0.00 | 0.09 | 0.09 | 76 | 1017.4 |
| 20260503001552 | 42 | 0 | 0.0 | 0.0 | 0.00 | 0.09 | 0.09 | 74 | 1017.4 |
| 20260503000050 | 43 | 0 | 0.0 | 0.9 | 0.00 | 0.09 | 0.09 | 73 | 1017.3 |
| 20260502234608 | 43 | 0 | 0.0 | 0.9 | 0.00 | 0.09 | 0.09 | 71 | 1017.3 |
| 20260502233049 | 43 | 0 | 0.0 | 0.9 | 0.00 | 0.09 | 0.09 | 70 | 1017.2 |
| 20260502231549 | 43 | 0 | 0.0 | 1.7 | 0.00 | 0.09 | 0.09 | 68 | 1017.2 |
| 20260502230057 | 44 | 0 | 0.0 | 2.6 | 0.00 | 0.09 | 0.09 | 66 | 1017.2 |
| 20260502224547 | 44 | 360 | 0.0 | 3.5 | 0.00 | 0.09 | 0.09 | 67 | 1017.2 |
| 20260502223101 | 44 | 5 | 0.0 | 3.5 | 0.00 | 0.09 | 0.09 | 69 | 1017.2 |
| 20260502221551 | 44 | 339 | 0.9 | 4.3 | 0.00 | 0.09 | 0.09 | 66 | 1017.1 |
| 20260502220100 | 44 | 355 | 1.7 | 4.3 | 0.00 | 0.09 | 0.09 | 66 | 1017.1 |
| 20260502214550 | 44 | 355 | 0.9 | 4.3 | 0.00 | 0.09 | 0.09 | 63 | 1017.2 |
| 20260502213052 | 44 | 352 | 1.7 | 7.0 | 0.00 | 0.09 | 0.09 | 64 | 1017.0 |
| 20260502211553 | 45 | 348 | 1.7 | 7.0 | 0.00 | 0.09 | 0.09 | 62 | 1017.0 |
| 20260502210055 | 45 | 355 | 1.7 | 5.2 | 0.00 | 0.09 | 0.09 | 65 | 1016.9 |
| 20260502204558 | 44 | 343 | 0.9 | 5.2 | 0.00 | 0.09 | 0.09 | 65 | 1016.9 |
| 20260502203118 | 44 | 17 | 0.9 | 7.8 | 0.00 | 0.09 | 0.09 | 69 | 1016.9 |
| 20260502201604 | 45 | 348 | 3.5 | 9.6 | 0.00 | 0.09 | 0.09 | 69 | 1016.9 |
| 20260502200059 | 46 | 342 | 1.7 | 8.7 | 0.00 | 0.09 | 0.09 | 66 | 1016.9 |
| 20260502194555 | 45 | 0 | 2.6 | 7.8 | 0.00 | 0.09 | 0.09 | 63 | 1017.1 |
| 20260502193109 | 45 | 347 | 1.7 | 5.2 | 0.00 | 0.09 | 0.09 | 63 | 1017.2 |
| 20260502191551 | 46 | 315 | 1.7 | 7.8 | 0.00 | 0.09 | 0.09 | 64 | 1017.3 |
| 20260502190052 | 46 | 343 | 3.5 | 9.6 | 0.00 | 0.09 | 0.09 | 61 | 1017.3 |
| 20260502184555 | 46 | 352 | 5.2 | 10.4 | 0.00 | 0.10 | 0.09 | 64 | 1017.3 |
| 20260502183055 | 45 | 325 | 2.6 | 7.0 | 0.00 | 0.10 | 0.09 | 69 | 1017.4 |
| 20260502181603 | 44 | 323 | 5.2 | 11.3 | 0.00 | 0.10 | 0.09 | 68 | 1017.4 |
| 20260502163100 | 45 | 67 | 1.7 | 7.8 | 0.00 | 0.10 | 0.09 | 68 | 1017.6 |
| 20260502161552 | 43 | 347 | 3.5 | 7.0 | 0.00 | 0.10 | 0.09 | 68 | 1017.7 |
| 20260502151609 | 43 | 355 | 0.9 | 8.7 | 0.01 | 0.10 | 0.09 | 75 | 1017.6 |
| 20260502123057 | 38 | 325 | 1.7 | 5.2 | 0.03 | 0.04 | 0.03 | 81 | 1017.0 |
| 20260502121556 | 37 | 340 | 2.6 | 4.3 | 0.01 | 0.02 | 0.01 | 82 | 1017.0 |
| 20260502114550 | 35 | 342 | 0.9 | 3.5 | 0.00 | 0.01 | 0.00 | 87 | 1016.9 |
| 20260502113102 | 34 | 311 | 0.0 | 1.7 | 0.00 | 0.01 | 0.00 | 91 | 1016.9 |
| 20260502111549 | 33 | 0 | 0.0 | 0.0 | 0.00 | 0.01 | 0.00 | 93 | 1016.8 |
| 20260502110053 | 32 | 0 | 0.0 | 0.0 | 0.00 | 0.01 | 0.00 | 92 | 1016.8 |
| 20260502104557 | 32 | 0 | 0.0 | 0.0 | 0.00 | 0.01 | 0.00 | 92 | 1016.7 |
| 20260502103050 | 32 | 0 | 0.0 | 0.0 | 0.00 | 0.01 | 0.00 | 92 | 1016.7 |
| 20260502101605 | 32 | 0 | 0.0 | 0.0 | 0.00 | 0.01 | 0.00 | 92 | 1016.7 |
| 20260502070111 | 37 | 0 | 0.0 | 0.9 | 0.00 | 0.01 | 0.00 | 92 | 1016.6 |
| 20260502064552 | 37 | 0 | 0.0 | 1.7 | 0.00 | 0.01 | 0.00 | 93 | 1016.7 |
| 20260502063049 | 38 | 0 | 0.0 | 0.9 | 0.00 | 0.01 | 0.00 | 93 | 1016.8 |
| 20260502061547 | 38 | 0 | 0.0 | 0.9 | 0.00 | 0.01 | 0.00 | 93 | 1016.8 |
| 20260502060056 | 38 | 0 | 0.0 | 0.0 | 0.00 | 0.01 | 0.00 | 93 | 1016.7 |
| 20260502054606 | 39 | 0 | 0.0 | 0.9 | 0.00 | 0.01 | 0.00 | 93 | 1017.0 |
| 20260502053057 | 39 | 0 | 0.0 | 0.0 | 0.00 | 0.01 | 0.00 | 93 | 1016.9 |
| 20260502051555 | 39 | 0 | 0.0 | 0.0 | 0.00 | 0.01 | 0.00 | 93 | 1016.9 |